GIA715 YSSY-WADD

Flight info

Callsign GIA715
Flight time N/A
Altitude 34000
Route RIC H530 IVRAD Q57 DODRO/N0490F360 G326 GUNAM/N0483F380 G326 NYOMA
Aircraft A333/H-SDE3GHIJ2J3J5M1RVWXY/LB2D1

Departure

Time 2026-05-07 08:22
Airport Sydney Kingsford Smith International Airport (YSSY)

Arrival

Time N/A
Airport Denpasar I Gusti Ngurah Rai International Airport (WADD)
Time Latitude Longitude Altitude Speed Heading
2026-05-07 07:54 -33.93892 151.16861 32 ft 0 kts 74°
2026-05-07 08:11 -33.93895 151.16846 32 ft 2 kts 74°
2026-05-07 08:12 -33.93899 151.16829 32 ft 2 kts 74°
2026-05-07 08:12 -33.93903 151.16811 31 ft 2 kts 74°
2026-05-07 08:12 -33.93906 151.16792 31 ft 2 kts 97°
2026-05-07 08:12 -33.93902 151.16775 30 ft 2 kts 121°
2026-05-07 08:13 -33.93893 151.16762 30 ft 2 kts 144°
2026-05-07 08:13 -33.93882 151.16754 30 ft 0 kts 163°
2026-05-07 08:13 -33.93878 151.16753 31 ft 0 kts 165°
2026-05-07 08:15 -33.93886 151.16756 30 ft 3 kts 164°
2026-05-07 08:15 -33.93932 151.16771 30 ft 9 kts 164°
2026-05-07 08:15 -33.94004 151.16797 29 ft 10 kts 163°
2026-05-07 08:16 -33.94058 151.16849 28 ft 10 kts 100°
2026-05-07 08:16 -33.94040 151.16936 29 ft 10 kts 73°
2026-05-07 08:16 -33.94017 151.17030 29 ft 13 kts 75°
2026-05-07 08:16 -33.93991 151.17139 27 ft 6 kts 74°
2026-05-07 08:17 -33.93975 151.17207 24 ft 10 kts 75°
2026-05-07 08:17 -33.93953 151.17305 20 ft 14 kts 75°
2026-05-07 08:17 -33.93922 151.17430 16 ft 16 kts 73°
2026-05-07 08:17 -33.93888 151.17572 13 ft 18 kts 75°
2026-05-07 08:18 -33.93854 151.17722 14 ft 18 kts 74°
2026-05-07 08:18 -33.93819 151.17870 15 ft 17 kts 74°
2026-05-07 08:18 -33.93790 151.17995 20 ft 13 kts 74°
2026-05-07 08:18 -33.93763 151.18105 23 ft 14 kts 74°
2026-05-07 08:19 -33.93738 151.18213 27 ft 11 kts 74°
2026-05-07 08:19 -33.93717 151.18298 29 ft 10 kts 74°
2026-05-07 08:19 -33.93695 151.18393 31 ft 11 kts 74°
2026-05-07 08:19 -33.93675 151.18483 32 ft 10 kts 75°
2026-05-07 08:20 -33.93652 151.18579 33 ft 14 kts 74°
2026-05-07 08:20 -33.93623 151.18703 33 ft 15 kts 74°
2026-05-07 08:20 -33.93595 151.18820 33 ft 13 kts 81°
2026-05-07 08:20 -33.93619 151.18918 32 ft 10 kts 136°
2026-05-07 08:21 -33.93631 151.18929 32 ft 1 kts 142°
2026-05-07 08:21 -33.93666 151.18950 31 ft 8 kts 158°
2026-05-07 08:21 -33.93726 151.18970 30 ft 8 kts 180°
2026-05-07 08:21 -33.93763 151.18932 31 ft 6 kts 244°
2026-05-07 08:22 -33.93799 151.18800 33 ft 39 kts 254°
2026-05-07 08:22 -33.93949 151.18162 23 ft 118 kts 255°
2026-05-07 08:22 -33.94233 151.17003 265 ft 159 kts 251°
2026-05-07 08:22 -33.94572 151.15860 1397 ft 144 kts 248°
2026-05-07 08:23 -33.94882 151.14769 2283 ft 141 kts 261°
2026-05-07 08:23 -33.94585 151.13592 2519 ft 166 kts 303°
2026-05-07 08:23 -33.93648 151.12634 2797 ft 182 kts 314°
2026-05-07 08:23 -33.92608 151.11681 3056 ft 193 kts 313°
2026-05-07 08:24 -33.91548 151.10617 3213 ft 210 kts 311°
2026-05-07 08:24 -33.90386 151.09413 3528 ft 228 kts 311°
2026-05-07 08:24 -33.89141 151.08124 3911 ft 245 kts 312°
2026-05-07 08:24 -33.87800 151.06734 4378 ft 259 kts 313°
2026-05-07 08:25 -33.86422 151.05307 5022 ft 266 kts 313°
2026-05-07 08:25 -33.85006 151.03842 5704 ft 271 kts 313°
2026-05-07 08:25 -33.83573 151.02353 6389 ft 275 kts 313°
2026-05-07 08:25 -33.82128 151.00856 7073 ft 278 kts 313°
2026-05-07 08:26 -33.79173 150.97792 8521 ft 282 kts 313°
2026-05-07 08:26 -33.77695 150.96260 9184 ft 285 kts 313°
2026-05-07 08:26 -33.76202 150.94713 9904 ft 286 kts 313°
2026-05-07 08:27 -33.74686 150.93143 10489 ft 293 kts 313°